Weather Roundup
Issued by NWS

Home | Current Version | Previous Version | Text Only | Print | Product List | Glossary On
Versions: 1 2 3 4 5 6 7 8 9 10 11 12 13 14 15 16 17 18 19 20 21 22 23 24 25 26 27 28 29 30 31 32 33 34 35 36 37 38 39 40 41 42 43 44 45 46 47 48 49 50
000
NZUS93 KARX 301110
HRRWXR

CURRENT HOURLY OBSERVATIONS ACROSS
MUCH OF THE UPPER MISSISSIPPI VALLEY
NATIONAL WEATHER SERVICE LA CROSSE WI
600 AM CDT SAT AUG 30 2014


...SOUTHEAST MINNESOTA...


CITY           SKY/WX    TMP DP  RH WIND       PRES   REMARKS
ROCHESTER      LGT RAIN  66  64  93 NW9       29.78R
ROCHESTER/MAYO CLOUDY    66  65  97 NW6       29.78R
WINONA         CLOUDY    68  68 100 CALM      29.75R
AUSTIN         DRIZZLE   66  64  94 NW8       29.79R
ALBERT LEA     CLOUDY    66  66 100 NW6       29.80R FOG
DODGE CENTER   LGT RAIN  66  64  94 NW7       29.79R
PRESTON        CLOUDY    65  65 100 CALM      29.78R FOG
OWATONNA       CLOUDY    68  66  94 NW7       29.80R FOG
FARIBAULT      CLOUDY    70  64  83 NW5       29.79S HAZE
$$

...ELSEWHERE IN MINNESOTA...


CITY           SKY/WX    TMP DP  RH WIND       PRES   REMARKS
MINNEAPOLIS    CLOUDY    67  66  97 N7        29.79R
INTNL FALLS    CLOUDY    58  54  86 NE12      29.89R
DULUTH         MOCLDY    61  58  90 CALM      29.82R
RED WING       DRIZZLE   66  64  94 NW3       29.75S
REDWOOD FALLS  CLOUDY    66  65  96 NW10      29.84R
MANKATO        CLOUDY    66  63  88 NW8       29.81R
WORTHINGTON    CLOUDY    64  64 100 N8        29.89R
FAIRMONT       CLOUDY    64  57  77 NW8       29.83R
$$

...SOUTHWEST WISCONSIN...


CITY           SKY/WX    TMP DP  RH WIND       PRES   REMARKS
LA CROSSE      LGT RAIN  69  66  90 CALM      29.74S
PRAIRIE DU CHI CLOUDY    69  66  89 S5        29.76S
BOSCOBEL       LGT RAIN  70  67  90 SW3       29.76S FOG
LONE ROCK      MOCLDY    72  67  84 SW3       29.77R
PLATTEVILLE    CLOUDY    70  69  96 SW10      29.79S
FORT MC COY    DRIZZLE   67  66  97 W5        29.76R
CAMP DOUGLAS   PTCLDY    68  68 100 SW5       29.75S
VIROQUA        CLOUDY    66  66 100 SW5       29.78R
WIS DELLS      PTCLDY    67  64  90 SW7       29.76S
$$

...ELSEWHERE IN WISCONSIN...


CITY           SKY/WX    TMP DP  RH WIND       PRES   REMARKS
MILWAUKEE      MOCLDY    72  67  84 SW10      29.81R
MADISON        CLOUDY    72  68  87 S7        29.77F
GREEN BAY      CLOUDY    68  67  96 E7        29.75F
EAU CLAIRE     CLOUDY    66  66 100 CALM      29.75R
BLACK RVR FLS  CLOUDY    67  67 100 CALM      29.75R FOG
MEDFORD        CLOUDY    64  64 100 CALM      29.78R FOG
WAUSAU         LGT RAIN  65  64  97 CALM      29.75R
WIS RAPIDS     HVY RAIN  67  66  97 NE8       29.74S FOG
MARSHFIELD     CLOUDY    67  65  93 CALM      29.76R
RICE LAKE      RAIN      64  63  96 CALM      29.78S
$$

...NORTHEAST IOWA...


CITY           SKY/WX    TMP DP  RH WIND       PRES   REMARKS
WATERLOO       CLOUDY    68  67  96 W8        29.77S
DUBUQUE        CLOUDY    68  67  96 SW16      29.79S
DECORAH        RAIN      66  66 100 W3        29.77R
MASON CITY     CLOUDY    66  65  96 W12       29.82R
CHARLES CITY   CLOUDY    66  66 100 W7        29.79R
OELWEIN        CLOUDY    66  66 100 SW8       29.79S
$$

...ELSEWHERE IN IOWA...


CITY           SKY/WX    TMP DP  RH WIND       PRES   REMARKS
DES MOINES     CLOUDY    67  64  90 W5        29.84R
IOWA CITY      MOCLDY    67  65  93 SW9       29.81S
FORT DODGE     CLOUDY    66  64  94 NW7       29.85R
MARSHALLTOWN   CLOUDY    67  65  93 W9        29.81R
CEDAR RAPIDS   LGT RAIN  66  66 100 SW10      29.79F
$$

...NORTHERN ILLINOIS...


CITY           SKY/WX    TMP DP  RH WIND       PRES   REMARKS
CHICAGO-OHARE  MOCLDY    73  66  78 SW10      29.85R
DUPAGE         MOCLDY    72  69  90 SW10      29.85R
CHICAGO-MIDWAY CLOUDY    75  70  84 SW9       29.85R
MOLINE         MOCLDY    69  66  90 S5        29.81F
ROCKFORD       RAIN      70  68  93 S8        29.82F
STERLING       CLOUDY    68  64  88 W3        29.83S
PEORIA         MOCLDY    72  69  90 S9        29.86F
$$

NOTE: "FAIR" INDICATES FEW OR NO CLOUDS BELOW 12,000 FEET WITH NO
SIGNIFICANT WEATHER AND/OR OBSTRUCTIONS TO VISIBILITY. WIND
SPEEDS ARE IN MILES-PER-HOUR.



USA.gov is the U.S. government's official web portal to all federal, state and local government web resources and services.